No particular awareness of the weather is required.    There are no Weather-warnings


Meteo18 Weather Cam more information Meteo18 Weather Cam


Thunder radar more information blitzortung!


Rain radar more information rain snow radar


Visit our other weather sites:

Template documentation
and downloads

And another site



Weather Underground History page Text

Daily Summary for March 3, 2018 Units:  Metric    English   Both
« Previous Day
Next Day »
Daily Weekly Monthly Yearly Custom
  High: Low: Average:
Temperature: -17.8 °C -16.8 °C -14.4 °C
Dew Point: -17.8 °C -18.6 °C -16.1 °C
Humidity: Humidity % 61 % 81 %
Wind Speed: 0 km/h 0 km/h 6.9 km/h
Wind Gust: 0 km/h - -
Wind:- - South
Pressure: 0 hPa 33524.8 hPa -
Precipitation: 38.1 mm    
Historical Graphs
 
 
Tabular Data for March 3, 2018
Time Temperature Dew Point Pressure Wind Wind Speed Wind Gust Humidity Rainfall Rate (Hourly)
-17.8 °C -17.8 °C 0 hPa Calm     Humidity % 0 mm
00:00 -16.8 °C -18.6 °C 33639.9 hPa Calm   2.6 km/h 79 % 0 mm
00:06 -16.8 °C -18.6 °C 33639.9 hPa NE 2.3 km/h 5.1 km/h 79 % 0 mm
00:12 -16.8 °C -18.6 °C 33626.4 hPa NNE 5.1 km/h 10.3 km/h 79 % 0 mm
00:18 -16.8 °C -18.6 °C 33626.4 hPa NNE 10.3 km/h 10.3 km/h 80 % 0 mm
00:24 -16.7 °C -18.4 °C 33626.4 hPa NNE 5.1 km/h 10.3 km/h 80 % 0 mm
00:31 -16.6 °C -18.4 °C 33626.4 hPa NE 2.3 km/h 7.7 km/h 79 % 0 mm
00:37 -16.6 °C -18.4 °C 33626.4 hPa NNE 2.3 km/h 7.7 km/h 79 % 0 mm
00:43 -16.5 °C -18.4 °C 33616.2 hPa ENE 7.6 km/h 10.3 km/h 78 % 0 mm
00:49 -16.5 °C -18.4 °C 33616.2 hPa ENE 10.3 km/h 12.9 km/h 78 % 0 mm
00:55 -16.4 °C -18.4 °C 33602.7 hPa ENE 5.1 km/h 15.6 km/h 77 % 0 mm
01:01 -16.3 °C -18.3 °C 33602.7 hPa ENE 2.3 km/h 12.9 km/h 77 % 0 mm
01:07 -16.3 °C -18.3 °C 33602.7 hPa ENE 2.3 km/h 10.3 km/h 77 % 0 mm
01:13 -16.3 °C -18.3 °C 33616.2 hPa ENE 7.6 km/h 10.3 km/h 77 % 0 mm
01:19 -16.3 °C -18.4 °C 33602.7 hPa ENE 2.3 km/h 5.1 km/h 76 % 0 mm
01:25 -16.3 °C -18.4 °C 33616.2 hPa ENE 2.3 km/h 7.7 km/h 76 % 0 mm
01:31 -16.3 °C -18.3 °C 33616.2 hPa Calm   7.7 km/h 77 % 0 mm
01:37 -16.3 °C -18.3 °C 33616.2 hPa ENE 12.7 km/h 12.9 km/h 77 % 0 mm
01:43 -16.3 °C -18.3 °C 33602.7 hPa NE 7.6 km/h 12.9 km/h 77 % 0 mm
01:49 -16.3 °C -18.3 °C 33602.7 hPa NNE 7.6 km/h 12.9 km/h 77 % 0 mm
01:55 -16.3 °C -18.3 °C 33602.7 hPa NNE 10.3 km/h 12.9 km/h 77 % 0 mm
02:01 -16.3 °C -18.3 °C 33592.5 hPa NNE 7.6 km/h 18.2 km/h 77 % 0 mm
02:07 -16.3 °C -18.3 °C 33592.5 hPa NE 10.3 km/h 15.6 km/h 77 % 0 mm
02:13 -16.2 °C -18.3 °C 33582.3 hPa NE 5.1 km/h 15.6 km/h 76 % 0 mm
02:19 -16.2 °C -18.3 °C 33582.3 hPa NE 7.6 km/h 10.3 km/h 76 % 0 mm
02:25 -16.2 °C -18.3 °C 33582.3 hPa NE 2.3 km/h 7.7 km/h 76 % 0 mm
02:31 -16.3 °C -18.3 °C 33568.8 hPa NE 5.1 km/h 12.9 km/h 77 % 0 mm
02:37 -16.2 °C -18.2 °C 33568.8 hPa ENE 2.3 km/h 7.7 km/h 77 % 0 mm
02:43 -16.2 °C -18.2 °C 33558.6 hPa NE 7.6 km/h 15.6 km/h 77 % 0 mm
02:49 -16.2 °C -18.2 °C 33568.8 hPa Calm   5.1 km/h 77 % 0 mm
02:55 -16.2 °C -18.3 °C 33568.8 hPa NE 2.3 km/h 2.6 km/h 76 % 0 mm
03:01 -16.1 °C -18.2 °C 33568.8 hPa NE 5.1 km/h 10.3 km/h 76 % 0 mm
03:07 -16.1 °C -18.3 °C 33568.8 hPa Calm   2.6 km/h 75 % 0 mm
03:13 -16.1 °C -18.2 °C 33558.6 hPa NE 7.6 km/h 12.9 km/h 76 % 0 mm
03:19 -16.2 °C -18.2 °C 33558.6 hPa NNE 7.6 km/h 12.9 km/h 77 % 0 mm
03:25 -16.3 °C -18.3 °C 33558.6 hPa NE 7.6 km/h 15.6 km/h 77 % 0 mm
03:31 -16.3 °C -18.2 °C 33558.6 hPa NNE 10.3 km/h 12.9 km/h 78 % 0 mm
03:37 -16.3 °C -18.2 °C 33545.1 hPa NE 10.3 km/h 15.6 km/h 78 % 0 mm
03:43 -16.3 °C -18.2 °C 33545.1 hPa NE 5.1 km/h 12.9 km/h 78 % 0 mm
03:49 -16.3 °C -18.2 °C 33545.1 hPa NE 12.7 km/h 12.9 km/h 78 % 0 mm
03:55 -16.2 °C -18.2 °C 33545.1 hPa NNE 5.1 km/h 10.3 km/h 77 % 0 mm
04:01 -16.2 °C -18.2 °C 33534.9 hPa ENE 5.1 km/h 12.9 km/h 77 % 0 mm
04:07 -16.3 °C -18.2 °C 33534.9 hPa Calm   7.7 km/h 78 % 0 mm
04:13 -16.3 °C -18.2 °C 33534.9 hPa Calm   2.6 km/h 79 % 0 mm
04:19 -16.4 °C -18.2 °C 33534.9 hPa ENE 2.3 km/h 5.1 km/h 79 % 0 mm
04:25 -16.4 °C -18.2 °C 33524.8 hPa ENE 5.1 km/h 7.7 km/h 79 % 0 mm
04:31 -16.4 °C -18.2 °C 33524.8 hPa NE 2.3 km/h 7.7 km/h 80 % 0 mm
04:37 -16.5 °C -18.2 °C 33524.8 hPa NE 5.1 km/h 5.1 km/h 80 % 0 mm
04:43 -16.5 °C -18.1 °C 33524.8 hPa ENE 2.3 km/h 7.7 km/h 81 % 0 mm
04:49 -16.4 °C -18.1 °C 33524.8 hPa ENE 2.3 km/h 5.1 km/h 81 % 0 mm
04:55 -16.4 °C -18.2 °C 33524.8 hPa Calm   2.6 km/h 80 % 0 mm
05:01 -16.4 °C -18.2 °C 33524.8 hPa NNE 2.3 km/h 5.1 km/h 80 % 0 mm
05:07 -16.4 °C -18.1 °C 33524.8 hPa Calm   2.6 km/h 80 % 0 mm
05:13 -16.5 °C -18.1 °C 33524.8 hPa Calm   2.6 km/h 81 % 0 mm
05:19 -16.5 °C -18.1 °C 33524.8 hPa Calm     81 % 0 mm
05:26 -16.4 °C -18.1 °C 33524.8 hPa Calm     81 % 0 mm
05:32 -16.4 °C -18.2 °C 33524.8 hPa Calm     80 % 0 mm
05:38 -16.3 °C -18.2 °C 33524.8 hPa Calm     79 % 0 mm
05:44 -16.4 °C -18.1 °C 33524.8 hPa Calm     81 % 0 mm
05:50 -16.4 °C -18.1 °C 33524.8 hPa Calm     81 % 0 mm
05:56 -16.3 °C -17.9 °C 33524.8 hPa Calm     81 % 0 mm
06:02 -16.3 °C -17.9 °C 33524.8 hPa Calm     81 % 0 mm
06:08 -16.3 °C -17.9 °C 33524.8 hPa Calm     82 % 0 mm
06:14 -16.3 °C -17.9 °C 33524.8 hPa Calm     82 % 7.62 mm
06:20 -16.4 °C -17.7 °C 33524.8 hPa Calm   2.6 km/h 84 % 7.62 mm
06:26 -16.4 °C -17.6 °C 33524.8 hPa Calm   2.6 km/h 86 % 7.62 mm
06:32 -16.5 °C -17.5 °C 33524.8 hPa Calm   2.6 km/h 88 % 7.62 mm
06:38 -16.6 °C -17.4 °C 33524.8 hPa Calm     89 % 12.7 mm
06:44 -16.6 °C -17.4 °C 33524.8 hPa Calm   2.6 km/h 90 % 12.7 mm
06:50 -16.6 °C -17.4 °C 33524.8 hPa Calm   2.6 km/h 90 % 12.7 mm
06:56 -16.6 °C -17.3 °C 33524.8 hPa Calm     91 % 12.7 mm
07:02 -16.6 °C -17.3 °C 33524.8 hPa SSW 2.3 km/h 2.6 km/h 91 % 12.7 mm
07:08 -16.6 °C -17.3 °C 33524.8 hPa Calm   2.6 km/h 91 % 12.7 mm
07:14 -16.6 °C -17.3 °C 33524.8 hPa SSW 2.3 km/h 2.6 km/h 92 % 7.62 mm
07:20 -16.7 °C -17.3 °C 33524.8 hPa Calm   2.6 km/h 92 % 7.62 mm
07:26 -16.7 °C -17.3 °C 33524.8 hPa Calm   2.6 km/h 92 % 7.62 mm
07:32 -16.7 °C -17.4 °C 33524.8 hPa Calm   2.6 km/h 92 % 0 mm
07:38 -16.7 °C -17.4 °C 33524.8 hPa Calm     92 % 0 mm
07:44 -16.7 °C -17.3 °C 33534.9 hPa Calm   2.6 km/h 93 % 0 mm
07:50 -16.7 °C -17.2 °C 33534.9 hPa Calm     93 % 0 mm
07:56 -16.6 °C -17.2 °C 33534.9 hPa Calm     93 % 7.62 mm
08:03 -16.6 °C -17.1 °C 33534.9 hPa Calm     93 % 7.62 mm
08:09 -16.6 °C -17.1 °C 33534.9 hPa Calm     93 % 7.62 mm
08:15 -16.6 °C -17.1 °C 33545.1 hPa WNW 2.3 km/h 2.6 km/h 93 % 7.62 mm
08:21 -16.5 °C -17.1 °C 33545.1 hPa Calm     93 % 7.62 mm
08:27 -16.4 °C -17 °C 33545.1 hPa Calm   2.6 km/h 93 % 7.62 mm
08:33 -16.4 °C -16.9 °C 33545.1 hPa Calm     93 % 12.7 mm
08:39 -16.3 °C -16.8 °C 33545.1 hPa Calm     94 % 12.7 mm
08:45 -16.2 °C -16.8 °C 33545.1 hPa Calm     93 % 12.7 mm
08:51 -16.2 °C -16.7 °C 33545.1 hPa Calm     93 % 12.7 mm
08:57 -16.1 °C -16.7 °C 33545.1 hPa Calm   2.6 km/h 93 % 12.7 mm
09:03 -16.1 °C -16.6 °C 33558.6 hPa Calm   2.6 km/h 93 % 12.7 mm
09:09 -16.1 °C -16.6 °C 33558.6 hPa Calm     93 % 12.7 mm
09:15 -16.1 °C -16.6 °C 33558.6 hPa Calm     93 % 12.7 mm
09:21 -16.1 °C -16.6 °C 33558.6 hPa Calm   2.6 km/h 93 % 12.7 mm
09:29 -16 °C -16.5 °C 33558.6 hPa Calm     94 % 12.7 mm
09:35 -16 °C -16.5 °C 33568.8 hPa Calm     94 % 12.7 mm
09:41 -16 °C -16.6 °C 33568.8 hPa Calm     93 % 12.7 mm
09:47 -16 °C -16.5 °C 33568.8 hPa Calm     94 % 12.7 mm
09:53 -16 °C -16.5 °C 33568.8 hPa Calm   2.6 km/h 94 % 12.7 mm
09:59 -16.1 °C -16.6 °C 33568.8 hPa Calm     94 % 12.7 mm
10:06 -16.1 °C -16.6 °C 33568.8 hPa Calm   2.6 km/h 94 % 12.7 mm
10:14 -16 °C -16.5 °C 33568.8 hPa Calm     94 % 7.62 mm
10:20 -15.9 °C -16.3 °C 33568.8 hPa Calm     95 % 7.62 mm
10:26 -15.8 °C -16.2 °C 33568.8 hPa Calm     95 % 7.62 mm
10:32 -15.7 °C -16.1 °C 33582.3 hPa Calm   2.6 km/h 95 % 7.62 mm
10:38 -15.6 °C -16.1 °C 33582.3 hPa Calm   2.6 km/h 94 % 7.62 mm
10:44 -15.5 °C -15.9 °C 33582.3 hPa Calm     95 % 0 mm
10:50 -15.4 °C -15.8 °C 33592.5 hPa Calm   2.6 km/h 95 % 0 mm
10:56 -15.4 °C -15.8 °C 33592.5 hPa Calm     95 % 0 mm
11:02 -15.3 °C -15.7 °C 33592.5 hPa SSW 2.3 km/h 2.6 km/h 95 % 0 mm
11:08 -15.2 °C -15.6 °C 33592.5 hPa Calm   5.1 km/h 95 % 0 mm
11:14 -15 °C -15.3 °C 33602.7 hPa SW 5.1 km/h 12.9 km/h 96 % 0 mm
11:20 -14.8 °C -15.2 °C 33602.7 hPa SW 5.1 km/h 10.3 km/h 96 % 0 mm
11:26 -14.7 °C -15 °C 33602.7 hPa WSW 17.9 km/h 28.5 km/h 96 % 0 mm
11:32 -14.4 °C -14.8 °C 33602.7 hPa SW 7.6 km/h 23.3 km/h 96 % 0 mm
11:38 -14.3 °C -14.7 °C 33602.7 hPa WSW 15.6 km/h 25.9 km/h 95 % 0 mm
11:44 -14.1 °C -14.4 °C 33616.2 hPa West 7.6 km/h 18.2 km/h 95 % 0 mm
11:50 -13.8 °C -14.2 °C 33616.2 hPa WNW 17.9 km/h 25.9 km/h 95 % 0 mm
11:56 -13.7 °C -14.3 °C 33616.2 hPa WNW 15.6 km/h 36.2 km/h 93 % 0 mm
12:02 -13.5 °C -14.1 °C 33616.2 hPa WSW 26.2 km/h 38.8 km/h 93 % 0 mm
12:08 -13.3 °C -14 °C 33616.2 hPa West 28.5 km/h 36.2 km/h 92 % 0 mm
12:14 -13.2 °C -13.9 °C 33616.2 hPa West 20.9 km/h 33.6 km/h 91 % 0 mm
12:20 -12.9 °C -13.7 °C 33616.2 hPa WSW 26.2 km/h 26.2 km/h 91 % 0 mm
12:26 -12.8 °C -13.7 °C 33626.4 hPa West 15.6 km/h 28.5 km/h 90 % 0 mm
12:32 -12.7 °C -13.6 °C 33626.4 hPa WSW 10.3 km/h 36.2 km/h 89 % 0 mm
12:38 -12.7 °C -13.8 °C 33626.4 hPa West 12.7 km/h 23.3 km/h 88 % 0 mm
12:44 -12.7 °C -13.8 °C 33626.4 hPa West 17.9 km/h 18.2 km/h 88 % 0 mm
12:50 -12.7 °C -13.8 °C 33639.9 hPa West 12.7 km/h 20.8 km/h 88 % 0 mm
12:56 -12.7 °C -13.8 °C 33626.4 hPa WSW 7.6 km/h 20.8 km/h 87 % 0 mm
13:02 -12.4 °C -13.7 °C 33639.9 hPa WSW 20.9 km/h 20.9 km/h 86 % 0 mm
13:08 -12.3 °C -13.8 °C 33639.9 hPa SSW 15.6 km/h 31.1 km/h 83 % 0 mm
13:14 -12.1 °C -14 °C 33639.9 hPa West 26.2 km/h 38.8 km/h 79 % 0 mm
13:20 -11.8 °C -13.9 °C 33639.9 hPa West 17.9 km/h 28.5 km/h 78 % 0 mm
13:26 -11.7 °C -13.8 °C 33639.9 hPa West 15.6 km/h 31.1 km/h 78 % 0 mm
13:32 -11.7 °C -14.1 °C 33639.9 hPa WNW 20.9 km/h 33.6 km/h 75 % 0 mm
13:38 -11.7 °C -14.2 °C 33650.1 hPa West 12.7 km/h 38.8 km/h 74 % 0 mm
13:44 -11.7 °C -14.1 °C 33650.1 hPa WSW 15.6 km/h 25.9 km/h 75 % 0 mm
13:50 -11.5 °C -14 °C 33650.1 hPa West 20.9 km/h 28.5 km/h 74 % 0 mm
13:56 -11.3 °C -14.4 °C 33650.1 hPa West 28.5 km/h 62.1 km/h 69 % 0 mm
14:02 -11.3 °C -14.2 °C 33650.1 hPa West 36.5 km/h 41.4 km/h 70 % 0 mm
14:08 -11.2 °C -14.1 °C 33650.1 hPa WSW 20.9 km/h 49.2 km/h 70 % 0 mm
14:14 -11.1 °C -14.8 °C 33650.1 hPa West 33.6 km/h 77.7 km/h 63 % 0 mm
14:20 -10.9 °C -14.3 °C 33650.1 hPa WSW 28.5 km/h 51.8 km/h 67 % 0 mm
14:26 -10.9 °C -14.6 °C 33650.1 hPa WSW 36.5 km/h 49.2 km/h 64 % 0 mm
14:32 -10.9 °C -14.9 °C 33650.1 hPa WSW 12.7 km/h 54.4 km/h 62 % 0 mm
14:38 -10.9 °C -14.7 °C 33660.2 hPa West 20.9 km/h 41.4 km/h 63 % 0 mm
14:44 -11 °C -14.6 °C 33650.1 hPa West 15.6 km/h 41.4 km/h 65 % 0 mm
14:50 -11.1 °C -14.7 °C 33650.1 hPa West 36.5 km/h 41.4 km/h 64 % 0 mm
14:56 -10.9 °C -14.3 °C 33650.1 hPa West 15.6 km/h 31.1 km/h 66 % 0 mm
15:02 -10.8 °C -14.9 °C 33660.2 hPa WSW 31.4 km/h 41.4 km/h 61 % 0 mm
15:08 -10.7 °C -14.7 °C 33660.2 hPa WSW 28.5 km/h 46.7 km/h 62 % 0 mm
15:14 -10.7 °C -14.7 °C 33660.2 hPa SW 17.9 km/h 38.8 km/h 61 % 0 mm
15:20 -10.7 °C -14.6 °C 33660.2 hPa SW 17.9 km/h 36.2 km/h 63 % 0 mm
15:26 -10.8 °C -14.4 °C 33660.2 hPa WSW 10.3 km/h 51.8 km/h 64 % 0 mm
15:32 -10.8 °C -14.4 °C 33660.2 hPa WSW 28.5 km/h 36.2 km/h 64 % 0 mm
15:38 -10.9 °C -14.5 °C 33673.8 hPa SW 2.3 km/h 33.6 km/h 65 % 0 mm
15:44 -11 °C -14.4 °C 33673.8 hPa West 10.3 km/h 25.9 km/h 66 % 0 mm
15:50 -11.2 °C -14.4 °C 33683.9 hPa WSW 51.5 km/h 51.8 km/h 67 % 0 mm
15:56 -11.8 °C -14.2 °C 33683.9 hPa West 36.5 km/h 49.2 km/h 75 % 7.62 mm
16:02 -12 °C -14.2 °C 33683.9 hPa WNW 33.6 km/h 49.2 km/h 77 % 7.62 mm
16:08 -11.9 °C -14.3 °C 33673.8 hPa West 12.7 km/h 33.6 km/h 74 % 7.62 mm
16:14 -11.6 °C -14.1 °C 33673.8 hPa West 10.3 km/h 28.5 km/h 74 % 7.62 mm
16:20 -11.5 °C -14.2 °C 33683.9 hPa WSW 17.9 km/h 38.8 km/h 72 % 7.62 mm
16:26 -11.3 °C -14.3 °C 33683.9 hPa SW 23 km/h 44.1 km/h 70 % 7.62 mm
16:32 -11.2 °C -14.5 °C 33683.9 hPa West 17.9 km/h 46.7 km/h 67 % 7.62 mm
16:38 -11.1 °C -14.6 °C 33683.9 hPa WSW 17.9 km/h 41.4 km/h 66 % 7.62 mm
16:44 -11.1 °C -14.6 °C 33683.9 hPa WNW 20.9 km/h 38.8 km/h 65 % 7.62 mm
16:50 -11 °C -14.8 °C 33683.9 hPa SW 33.6 km/h 44.1 km/h 63 % 7.62 mm
16:56 -11 °C -14.3 °C 33683.9 hPa SSW 23 km/h 31.1 km/h 67 % 0 mm
17:02 -11.1 °C -14.6 °C 33694.1 hPa SW 20.9 km/h 38.8 km/h 66 % 0 mm
17:08 -11.1 °C -14.7 °C 33694.1 hPa SW 15.6 km/h 46.7 km/h 64 % 0 mm
17:14 -11.1 °C -14.6 °C 33694.1 hPa West 17.9 km/h 25.9 km/h 65 % 0 mm
17:20 -11.2 °C -14.7 °C 33694.1 hPa SW 15.6 km/h 20.8 km/h 65 % 0 mm
17:26 -11.3 °C -14.7 °C 33694.1 hPa WNW 17.9 km/h 20.8 km/h 66 % 0 mm
17:32 -11.4 °C -14.7 °C 33694.1 hPa SW 20.9 km/h 20.9 km/h 67 % 0 mm
17:38 -11.5 °C -14.4 °C 33694.1 hPa SW 10.3 km/h 12.9 km/h 70 % 0 mm
17:45 -11.5 °C -14.4 °C 33707.6 hPa SW 7.6 km/h 10.3 km/h 70 % 0 mm
17:51 -11.4 °C -14.4 °C 33707.6 hPa Calm   5.1 km/h 70 % 0 mm
17:57 -11.3 °C -14.3 °C 33707.6 hPa SW 2.3 km/h 7.7 km/h 70 % 0 mm
18:03 -11.3 °C -14.6 °C 33707.6 hPa Calm   12.9 km/h 67 % 0 mm
18:09 -11.3 °C -14.5 °C 33707.6 hPa WSW 2.3 km/h 5.1 km/h 68 % 0 mm
18:15 -11.4 °C -14.7 °C 33707.6 hPa SW 2.3 km/h 5.1 km/h 67 % 0 mm
18:21 -11.5 °C -14.8 °C 33707.6 hPa SSW 2.3 km/h 7.7 km/h 67 % 0 mm
18:27 -11.7 °C -14.7 °C 33707.6 hPa SW 5.1 km/h 5.1 km/h 69 % 0 mm
18:33 -11.9 °C -14.6 °C 33717.8 hPa SE 5.1 km/h 5.1 km/h 72 % 0 mm
18:39 -12.3 °C -14.7 °C 33717.8 hPa SSW 5.1 km/h 5.1 km/h 75 % 0 mm
18:45 -12.7 °C -14.7 °C 33717.8 hPa SSW 2.3 km/h 5.1 km/h 78 % 0 mm
18:51 -12.9 °C -14.7 °C 33731.3 hPa South 5.1 km/h 5.1 km/h 80 % 0 mm
18:57 -13.1 °C -14.8 °C 33731.3 hPa SSW 5.1 km/h 7.7 km/h 81 % 0 mm
19:03 -13.1 °C -14.7 °C 33731.3 hPa South 2.3 km/h 7.7 km/h 82 % 0 mm
19:09 -13.2 °C -14.8 °C 33731.3 hPa South 2.3 km/h 2.6 km/h 82 % 0 mm
19:15 -13.3 °C -14.9 °C 33731.3 hPa Calm   2.6 km/h 82 % 0 mm
19:21 -13.3 °C -14.8 °C 33731.3 hPa SE 2.3 km/h 2.6 km/h 83 % 0 mm
19:27 -13.4 °C -14.8 °C 33741.5 hPa Calm   2.6 km/h 84 % 0 mm
19:33 -13.3 °C -14.7 °C 33741.5 hPa SE 5.1 km/h 5.1 km/h 85 % 0 mm
19:39 -13.4 °C -14.8 °C 33741.5 hPa SE 5.1 km/h 5.1 km/h 84 % 0 mm
19:45 -13.4 °C -14.8 °C 33741.5 hPa SW 2.3 km/h 5.1 km/h 85 % 0 mm
19:51 -13.6 °C -14.9 °C 33741.5 hPa Calm   2.6 km/h 85 % 0 mm
19:57 -13.7 °C -14.9 °C 33741.5 hPa Calm     86 % 0 mm
20:03 -13.8 °C -14.9 °C 33741.5 hPa Calm   2.6 km/h 87 % 0 mm
20:09 -13.9 °C -15.2 °C 33751.6 hPa ESE 2.3 km/h 2.6 km/h 86 % 0 mm
20:15 -14.1 °C -15.2 °C 33751.6 hPa Calm     87 % 0 mm
20:21 -14.1 °C -15.2 °C 33741.5 hPa Calm   2.6 km/h 87 % 0 mm
20:28 -14.1 °C -15.2 °C 33751.6 hPa Calm   2.6 km/h 87 % 0 mm
20:34 -14.2 °C -15.3 °C 33751.6 hPa Calm   2.6 km/h 87 % 0 mm
20:40 -14.3 °C -15.4 °C 33751.6 hPa Calm   2.6 km/h 87 % 0 mm
20:46 -14.3 °C -15.3 °C 33751.6 hPa Calm     88 % 0 mm
20:52 -14.4 °C -15.4 °C 33751.6 hPa Calm     88 % 0 mm
20:58 -14.5 °C -15.5 °C 33751.6 hPa Calm   2.6 km/h 88 % 0 mm
21:04 -14.5 °C -15.4 °C 33751.6 hPa Calm   2.6 km/h 89 % 0 mm
21:10 -14.6 °C -15.5 °C 33751.6 hPa Calm   2.6 km/h 89 % 0 mm
21:16 -14.6 °C -15.6 °C 33751.6 hPa Calm     88 % 0 mm
21:22 -14.6 °C -15.7 °C 33751.6 hPa Calm     87 % 0 mm
21:28 -14.6 °C -15.7 °C 33751.6 hPa Calm     87 % 0 mm
21:34 -14.7 °C -15.8 °C 33765.2 hPa Calm     87 % 0 mm
21:40 -14.6 °C -15.7 °C 33765.2 hPa Calm   2.6 km/h 87 % 0 mm
21:46 -14.7 °C -15.8 °C 33765.2 hPa WNW 2.3 km/h 2.6 km/h 87 % 0 mm
21:52 -15.1 °C -16 °C 33765.2 hPa WNW 2.3 km/h 2.6 km/h 89 % 0 mm
21:58 -15.2 °C -16 °C 33775.4 hPa WSW 2.3 km/h 5.1 km/h 90 % 0 mm
22:04 -14.7 °C -15.9 °C 33788.9 hPa SSW 5.1 km/h 12.9 km/h 86 % 0 mm
22:10 -14.6 °C -16 °C 33765.2 hPa Calm   10.3 km/h 84 % 0 mm
22:16 -14.6 °C -15.9 °C 33765.2 hPa Calm   5.1 km/h 85 % 0 mm
22:22 -14.7 °C -15.9 °C 33765.2 hPa Calm   2.6 km/h 86 % 0 mm
22:28 -14.3 °C -15.4 °C 33765.2 hPa SW 12.7 km/h 31.1 km/h 87 % 0 mm
22:34 -14.1 °C -15.4 °C 33765.2 hPa SW 10.3 km/h 18.2 km/h 84 % 0 mm
22:40 -14.1 °C -15.4 °C 33765.2 hPa SSE 2.3 km/h 5.1 km/h 85 % 0 mm
22:46 -14.2 °C -15.5 °C 33765.2 hPa SSW 2.3 km/h 7.7 km/h 85 % 0 mm
22:52 -14.3 °C -15.5 °C 33765.2 hPa SW 5.1 km/h 5.1 km/h 86 % 0 mm
22:58 -14.3 °C -15.6 °C 33765.2 hPa SSW 2.3 km/h 5.1 km/h 86 % 0 mm
23:04 -14.3 °C -15.6 °C 33765.2 hPa Calm     86 % 0 mm
23:10 -14.4 °C -15.6 °C 33765.2 hPa Calm     86 % 0 mm
23:16 -14.6 °C -15.8 °C 33765.2 hPa Calm     86 % 0 mm
23:22 -14.6 °C -15.7 °C 33765.2 hPa Calm   2.6 km/h 87 % 0 mm
23:28 -14.6 °C -15.7 °C 33765.2 hPa Calm     87 % 0 mm
23:34 -14.6 °C -15.8 °C 33765.2 hPa NNW 2.3 km/h 2.6 km/h 86 % 0 mm
23:40 -14.7 °C -15.8 °C 33775.4 hPa NNW 2.3 km/h 2.6 km/h 87 % 0 mm
23:46 -14.8 °C -15.9 °C 33775.4 hPa North 2.3 km/h 2.6 km/h 87 % 0 mm
23:52 -14.9 °C -15.9 °C 33775.4 hPa Calm   2.6 km/h 88 % 0 mm
23:58 -14.9 °C -15.9 °C 33775.4 hPa Calm     88 % 0 mm
Meteo18
Compliments of Weather Underground - 4 mb

Script developed by  Jim McMurry - jmcmurry@mwt.net Adapted for the template by  Wim van der Kuil - Leuven-Template.eu

You find our weather info also at:

European Weather Network

Weather Underground

Equipment we use:

Weather-station
Davis Vue

Weather-program
Meteobridge

Weather-server
Raspberry PI 2 B+

Provider
1 and 1

Davis Vue

Meteobridge

Raspberry PI 2 B+

1 and 1